Time,TemperatureF,DewpointF,PressureIn,WindDirection,WindDirectionDegrees,WindSpeedMPH,WindSpeedGustMPH,Humidity,HourlyPrecipIn,Conditions,Clouds,dailyrainin,SoftwareType,DateUTC
2013-04-10 00:14:00,66.6,51.4,29.74,North,0,0.0,-999.0,58,-99.99,,,0.00,Acu-Link.com,2013-04-10 04:14:00,
2013-04-10 00:30:00,66.4,51.6,29.74,WNW,292,0.0,-999.0,59,-99.99,,,0.00,Acu-Link.com,2013-04-10 04:30:00,
2013-04-10 00:45:00,66.2,51.4,29.74,SSE,157,0.0,-999.0,59,-99.99,,,0.00,Acu-Link.com,2013-04-10 04:45:00,
2013-04-10 01:00:00,66.6,51.4,29.74,NNW,337,1.1,-999.0,58,-99.99,,,0.00,Acu-Link.com,2013-04-10 05:00:00,
2013-04-10 01:15:00,66.9,51.6,29.73,West,270,1.7,-999.0,58,-99.99,,,0.00,Acu-Link.com,2013-04-10 05:15:00,
2013-04-10 01:31:00,67.6,51.3,29.74,WNW,292,1.1,-999.0,56,-99.99,,,0.00,Acu-Link.com,2013-04-10 05:31:00,
2013-04-10 02:01:00,67.3,52.0,29.73,ESE,112,0.0,-999.0,58,-99.99,,,0.00,Acu-Link.com,2013-04-10 06:01:00,
2013-04-10 02:16:00,66.9,52.1,29.72,East,90,2.7,-999.0,59,-99.99,,,0.00,Acu-Link.com,2013-04-10 06:16:00,
2013-04-10 02:47:00,65.7,52.3,29.74,North,0,0.0,-999.0,62,-99.99,,,0.00,Acu-Link.com,2013-04-10 06:47:00,
2013-04-10 03:02:00,64.8,50.6,29.75,North,0,0.0,-999.0,60,-99.99,,,0.00,Acu-Link.com,2013-04-10 07:02:00,
2013-04-10 03:17:00,63.5,49.4,29.75,WNW,292,0.0,-999.0,60,-99.99,,,0.00,Acu-Link.com,2013-04-10 07:17:00,
2013-04-10 03:32:00,62.6,49.4,29.76,SW,225,3.2,-999.0,62,-99.99,,,0.00,Acu-Link.com,2013-04-10 07:32:00,
2013-04-10 03:47:00,62.1,49.8,29.76,NNW,337,0.0,-999.0,64,-99.99,,,0.00,Acu-Link.com,2013-04-10 07:47:00,
2013-04-10 04:03:00,62.1,49.8,29.77,NNE,22,0.0,-999.0,64,-99.99,,,0.00,Acu-Link.com,2013-04-10 08:03:00,
2013-04-10 04:18:00,62.1,49.8,29.77,NNE,22,0.0,-999.0,64,-99.99,,,0.00,Acu-Link.com,2013-04-10 08:18:00,
2013-04-10 04:33:00,61.3,49.0,29.78,North,0,1.7,-999.0,64,-99.99,,,0.00,Acu-Link.com,2013-04-10 08:33:00,
2013-04-10 04:48:00,60.4,49.0,29.78,East,90,0.0,-999.0,66,-99.99,,,0.00,Acu-Link.com,2013-04-10 08:48:00,
2013-04-10 05:03:00,60.3,49.3,29.79,West,270,0.0,-999.0,67,-99.99,,,0.00,Acu-Link.com,2013-04-10 09:03:00,
2013-04-10 05:18:00,59.2,49.0,29.80,SSE,157,1.1,-999.0,69,-99.99,,,0.00,Acu-Link.com,2013-04-10 09:18:00,
2013-04-10 05:34:00,58.8,48.7,29.80,West,270,1.7,-999.0,69,-99.99,,,0.00,Acu-Link.com,2013-04-10 09:34:00,
2013-04-10 05:49:00,58.8,48.7,29.80,WNW,292,0.0,-999.0,69,-99.99,,,0.00,Acu-Link.com,2013-04-10 09:49:00,
2013-04-10 06:04:00,58.8,49.0,29.80,NW,315,0.0,-999.0,70,-99.99,,,0.00,Acu-Link.com,2013-04-10 10:04:00,
2013-04-10 06:19:00,58.6,48.8,29.81,WNW,292,0.0,-999.0,70,-99.99,,,0.00,Acu-Link.com,2013-04-10 10:19:00,
2013-04-10 06:34:00,58.3,48.6,29.82,West,270,1.7,-999.0,70,-99.99,,,0.00,Acu-Link.com,2013-04-10 10:34:00,
2013-04-10 06:50:00,57.9,48.6,29.80,NW,315,1.1,-999.0,71,-99.99,,,0.00,Acu-Link.com,2013-04-10 10:50:00,
2013-04-10 07:05:00,58.1,48.7,29.80,WNW,292,1.7,-999.0,71,-99.99,,,0.00,Acu-Link.com,2013-04-10 11:05:00,
2013-04-10 07:20:00,58.1,48.7,29.83,WNW,292,0.0,-999.0,71,-99.99,,,0.00,Acu-Link.com,2013-04-10 11:20:00,
2013-04-10 07:35:00,59.0,49.2,29.83,WNW,292,1.7,-999.0,70,-99.99,,,0.00,Acu-Link.com,2013-04-10 11:35:00,
2013-04-10 07:50:00,59.5,49.7,29.81,WNW,292,0.0,-999.0,70,-99.99,,,0.00,Acu-Link.com,2013-04-10 11:50:00,
2013-04-10 08:06:00,61.0,50.8,29.82,East,90,1.7,-999.0,69,-99.99,,,0.00,Acu-Link.com,2013-04-10 12:06:00,
2013-04-10 08:21:00,63.0,51.5,29.82,SSE,157,2.2,-999.0,66,-99.99,,,0.00,Acu-Link.com,2013-04-10 12:21:00,
2013-04-10 08:36:00,63.3,51.3,29.81,ESE,112,1.7,-999.0,65,-99.99,,,0.00,Acu-Link.com,2013-04-10 12:36:00,
2013-04-10 08:51:00,64.0,51.6,29.81,SSE,157,0.0,-999.0,64,-99.99,,,0.00,Acu-Link.com,2013-04-10 12:51:00,
2013-04-10 09:07:00,65.8,52.4,29.81,SW,225,0.0,-999.0,62,-99.99,,,0.00,Acu-Link.com,2013-04-10 13:07:00,
2013-04-10 10:07:00,73.2,54.0,29.80,South,180,0.0,-999.0,51,-99.99,,,0.00,Acu-Link.com,2013-04-10 14:07:00,
2013-04-10 10:23:00,75.4,54.9,29.80,SSW,202,2.2,-999.0,49,-99.99,,,0.00,Acu-Link.com,2013-04-10 14:23:00,
2013-04-10 10:38:00,74.5,54.6,29.80,East,90,3.7,-999.0,50,-99.99,,,0.00,Acu-Link.com,2013-04-10 14:38:00,
2013-04-10 10:53:00,77.2,55.4,29.80,SSW,202,2.2,-999.0,47,-99.99,,,0.00,Acu-Link.com,2013-04-10 14:53:00,
2013-04-10 11:08:00,76.6,56.0,29.79,SSE,157,1.7,-999.0,49,-99.99,,,0.00,Acu-Link.com,2013-04-10 15:08:00,
2013-04-10 11:23:00,76.6,56.0,29.78,East,90,4.2,-999.0,49,-99.99,,,0.00,Acu-Link.com,2013-04-10 15:23:00,
2013-04-10 11:39:00,80.8,57.5,29.77,West,270,3.2,-999.0,45,-99.99,,,0.00,Acu-Link.com,2013-04-10 15:39:00,
2013-04-10 11:54:00,80.1,57.4,29.77,West,270,4.7,-999.0,46,-99.99,,,0.00,Acu-Link.com,2013-04-10 15:54:00,
2013-04-10 12:09:00,78.8,57.4,29.76,NNW,337,1.1,-999.0,48,-99.99,,,0.00,Acu-Link.com,2013-04-10 16:09:00,
2013-04-10 12:24:00,80.8,58.7,29.75,SE,135,1.7,-999.0,47,-99.99,,,0.00,Acu-Link.com,2013-04-10 16:24:00,
2013-04-10 12:40:00,83.5,58.6,29.73,ESE,112,1.7,-999.0,43,-99.99,,,0.00,Acu-Link.com,2013-04-10 16:40:00,
2013-04-10 12:55:00,81.9,58.4,29.74,SSE,157,4.2,-999.0,45,-99.99,,,0.00,Acu-Link.com,2013-04-10 16:55:00,
2013-04-10 13:10:00,83.3,59.1,29.73,East,90,3.2,-999.0,44,-99.99,,,0.00,Acu-Link.com,2013-04-10 17:10:00,
2013-04-10 13:25:00,81.5,58.7,29.73,SE,135,3.2,-999.0,46,-99.99,,,0.00,Acu-Link.com,2013-04-10 17:25:00,
2013-04-10 13:41:00,80.8,58.7,29.72,West,270,5.8,-999.0,47,-99.99,,,0.00,Acu-Link.com,2013-04-10 17:41:00,
2013-04-10 14:27:00,82.4,59.5,29.70,West,270,4.2,-999.0,46,-99.99,,,0.00,Acu-Link.com,2013-04-10 18:27:00,
2013-04-10 14:42:00,82.4,59.5,29.70,SSW,202,3.7,-999.0,46,-99.99,,,0.00,Acu-Link.com,2013-04-10 18:42:00,
2013-04-10 14:58:00,82.6,59.7,29.69,East,90,3.7,-999.0,46,-99.99,,,0.00,Acu-Link.com,2013-04-10 18:58:00,
2013-04-10 15:13:00,82.2,59.3,29.68,SW,225,2.2,-999.0,46,-99.99,,,0.00,Acu-Link.com,2013-04-10 19:13:00,
2013-04-10 15:28:00,81.7,59.5,29.68,ENE,67,4.2,-999.0,47,-99.99,,,0.00,Acu-Link.com,2013-04-10 19:28:00,
2013-04-10 15:43:00,81.0,58.8,29.69,SSW,202,1.7,-999.0,47,-99.99,,,0.00,Acu-Link.com,2013-04-10 19:43:00,
2013-04-10 15:58:00,80.1,58.6,29.69,West,270,2.7,-999.0,48,-99.99,,,0.00,Acu-Link.com,2013-04-10 19:58:00,
2013-04-10 16:14:00,67.6,57.9,29.71,WNW,292,5.3,-999.0,71,-99.99,,,0.01,Acu-Link.com,2013-04-10 20:14:00,
2013-04-10 16:29:00,64.2,57.2,29.71,South,180,2.7,-999.0,78,-99.99,,,0.08,Acu-Link.com,2013-04-10 20:29:00,
2013-04-10 16:44:00,63.3,58.0,29.67,North,0,0.0,-999.0,83,-99.99,,,0.11,Acu-Link.com,2013-04-10 20:44:00,
2013-04-10 17:31:00,64.2,60.9,29.66,SSW,202,0.0,-999.0,89,-99.99,,,0.11,Acu-Link.com,2013-04-10 21:31:00,
2013-04-10 17:46:00,64.2,61.5,29.65,West,270,0.0,-999.0,91,-99.99,,,0.11,Acu-Link.com,2013-04-10 21:46:00,
2013-04-10 18:02:00,64.2,61.8,29.66,ESE,112,0.0,-999.0,92,-99.99,,,0.12,Acu-Link.com,2013-04-10 22:02:00,
2013-04-10 18:17:00,64.6,62.2,29.67,East,90,0.0,-999.0,92,-99.99,,,0.12,Acu-Link.com,2013-04-10 22:17:00,
2013-04-10 18:32:00,64.6,61.6,29.67,ESE,112,0.0,-999.0,90,-99.99,,,0.12,Acu-Link.com,2013-04-10 22:32:00,
2013-04-10 18:47:00,64.0,60.7,29.66,SSW,202,0.0,-999.0,89,-99.99,,,0.12,Acu-Link.com,2013-04-10 22:47:00,
2013-04-10 19:03:00,63.5,60.2,29.66,SSE,157,0.0,-999.0,89,-99.99,,,0.12,Acu-Link.com,2013-04-10 23:03:00,
2013-04-10 19:18:00,62.6,59.9,29.67,WSW,247,1.1,-999.0,91,-99.99,,,0.12,Acu-Link.com,2013-04-10 23:18:00,
2013-04-10 19:33:00,63.1,58.5,29.72,West,270,5.3,-999.0,85,-99.99,,,0.12,Acu-Link.com,2013-04-10 23:33:00,
2013-04-10 19:48:00,62.1,57.2,29.73,West,270,4.7,-999.0,84,-99.99,,,0.15,Acu-Link.com,2013-04-10 23:48:00,
2013-04-10 20:04:00,61.2,57.6,29.75,SW,225,4.7,-999.0,88,-99.99,,,0.19,Acu-Link.com,2013-04-11 00:04:00,
2013-04-10 20:19:00,60.4,57.5,29.77,West,270,2.2,-999.0,90,-99.99,,,0.28,Acu-Link.com,2013-04-11 00:19:00,
2013-04-10 20:34:00,59.9,57.6,29.76,WNW,292,2.2,-999.0,92,-99.99,,,0.40,Acu-Link.com,2013-04-11 00:34:00,
2013-04-10 20:49:00,59.2,57.5,29.76,WNW,292,3.2,-999.0,94,-99.99,,,0.42,Acu-Link.com,2013-04-11 00:49:00,
2013-04-10 21:04:00,59.2,57.5,29.76,WSW,247,1.7,-999.0,94,-99.99,,,0.45,Acu-Link.com,2013-04-11 01:04:00,
2013-04-10 21:20:00,58.8,57.4,29.76,East,90,0.0,-999.0,95,-99.99,,,0.49,Acu-Link.com,2013-04-11 01:20:00,
2013-04-10 21:35:00,58.8,57.7,29.76,ENE,67,0.0,-999.0,96,-99.99,,,0.59,Acu-Link.com,2013-04-11 01:35:00,
2013-04-10 21:50:00,58.6,57.5,29.75,ENE,67,1.7,-999.0,96,-99.99,,,0.59,Acu-Link.com,2013-04-11 01:50:00,
2013-04-10 22:05:00,58.5,57.4,29.75,SSW,202,0.0,-999.0,96,-99.99,,,0.61,Acu-Link.com,2013-04-11 02:05:00,
2013-04-10 22:20:00,58.3,57.5,29.74,NNW,337,0.0,-999.0,97,-99.99,,,0.62,Acu-Link.com,2013-04-11 02:20:00,
2013-04-10 22:36:00,58.1,57.3,29.74,West,270,2.2,-999.0,97,-99.99,,,0.62,Acu-Link.com,2013-04-11 02:36:00,
2013-04-10 23:36:00,58.5,57.9,29.75,East,90,0.0,-999.0,98,-99.99,,,0.86,Acu-Link.com,2013-04-11 03:36:00,
2013-04-10 23:52:00,58.3,57.7,29.74,NW,315,0.0,-999.0,98,-99.99,,,0.87,Acu-Link.com,2013-04-11 03:52:00,